{"data":{"norad_id":62894,"intl_designator":"2025-024R","name":"STARLINK-32909","alt_names":[],"object_type":"PAYLOAD","status":"ACTIVE","operator":null,"country":"US","launch_date":"2025-02-04","launch_site_code":"AFETR","launch_vehicle":null,"mission":null,"orbit_class":"UNKNOWN","rcs_meters":null,"size_class":null,"mass_kg":null,"dimensions":null,"purposes":["comms"],"wikipedia_slug":null,"has_3d_model":false,"image_url":null,"decayed_at":null,"tle_current":{"epoch":"2026-09-21T18:55:42.847968Z","epoch_age_seconds":56892,"freshness":"FRESH","line1":"1 62894U 25024R   26264.78869037  .00008210  00000+0  30752-3 0  9990","line2":"2 62894  43.0023 298.1699 0001676 274.3378  85.7282 15.27583243 92251","mean_motion":15.27583243,"eccentricity":0.0001676,"inclination_deg":43.0023,"raan_deg":298.1699,"arg_perigee_deg":274.3378,"mean_anomaly_deg":85.7282,"bstar":0.00030752,"rev_number":9225,"period_min":94.266548588999,"perigee_km":481.88945218598,"apogee_km":484.18931851035,"semimajor_km":6861.1763853482,"source":"CELESTRAK","updated_at":"2026-09-22T09:00:49.705010Z"}}}